Regional Weather Roundup
Issued by NWS

Home | Current Version | Previous Version | Graphics & Text | Print | Product List | Glossary On
Versions: 1 2 3 4 5 6 7 8 9 10 11 12 13 14 15 16 17 18 19 20 21 22 23 24 25 26 27 28 29 30 31 32 33 34 35 36 37 38 39 40 41 42 43 44 45 46 47 48 49 50
587
ASUS44 KJAN 220010
RWRMS

MISSISSIPPI HOURLY WEATHER ROUNDUP
NATIONAL WEATHER SERVICE JACKSON MS
700 PM CDT THU AUG 21 2014

NOTE: "FAIR: INDICATES FEW OR NO CLOUDS BELOW 12,000 FEET WITH NO
SIGNIFICANT WEATHER AND/OR OBSTRUCTIONS TO VISIBILITY.

MSZ001>002-007>008-010>013-018>021-025>028-034>036-220100-
NORTHWEST MISSISSIPPI

CITY           SKY/WX    TMP DP  RH WIND       PRES   REMARKS
CLARKSDALE     FAIR      90  77  66 CALM      30.04F HX 102
CLEVELAND      FAIR      90  77  66 SW3       30.05R HX 103
GREENWOOD      CLEAR     89  76  65 S7        30.06R HX 100
6HR MIN TEMP:  89; 6HR MAX TEMP:  93;

GREENVILLE     PTCLDY    91  74  57 SW6       30.05S HX 100
6HR MIN TEMP:  91; 6HR MAX TEMP:  95;

GRENADA        FAIR      88  73  62 S3        30.06S HX  96
OLIVE BRANCH   PTCLDY    88  77  70 S9        30.04S HX 100
OXFORD         FAIR      86  72  62 SW6       30.07F HX  92
TUNICA         CLEAR     90  73  58 S8        30.04S HX  98
$$

MSZ003>006-009-014>017-022>024-029>033-037>039-220100-
NORTHEAST MISSISSIPPI

CITY           SKY/WX    TMP DP  RH WIND       PRES   REMARKS
BELMONT        FAIR      86  75  68 CALM      30.07S HX  95
COLUMBUS AFB   CLEAR     91  72  55 N2        30.06R HX  98
6HR MIN TEMP:  91; 6HR MAX TEMP:  96;

CORINTH        FAIR      88  75  66 CALM      30.05S HX  97
GOLDN TRIANGLE PTCLDY    93  72  49 N5        30.07R HX 100
STARKVILLE     FAIR      90  70  51 CALM      30.06S HX  95
TUPELO         CLEAR     91  72  53 W3        30.05S HX  98
6HR MIN TEMP:  91; 6HR MAX TEMP:  95;

$$

MSZ040-058-220100-
CENTRAL MISSISSIPPI

CITY           SKY/WX    TMP DP  RH WIND       PRES   REMARKS
JACKSON INTL   CLOUDY    83  71  67 NE3       30.13R THUNDER
6HR MIN TEMP:  82; 6HR MAX TEMP:  96;

JACKSON HAWKNS CLOUDY    83  72  69 W9        30.12R
6HR MIN TEMP:  81; 6HR MAX TEMP:  97; 6HR PCP:  0.01;

MERIDIAN KEY   CLEAR     89  70  53 SW5       30.09R HX  94
6HR MIN TEMP:  89; 6HR MAX TEMP:  96;

MERIDIAN NAS   PTCLDY    89  72  56 SW3       30.08R HX  96
6HR MIN TEMP:  89; 6HR MAX TEMP:  95;

RAYMOND        TSTM      72  66  83 W12       30.15R
VICKSBURG      CLOUDY    75  73  93 CALM      30.09S
6HR MIN TEMP:  75; 6HR MAX TEMP:  95; 6HR PCP:  1.54;

$$

MSZ059>079-220100-
SOUTH MISSISSIPPI

CITY           SKY/WX    TMP DP  RH WIND       PRES   REMARKS
BROOKHAVEN     LGT RAIN  73  73 100 CALM      30.15S
HATTIESBURG    MOCLDY    79  75  87 W3        30.11S
6HR MIN TEMP:  79; 6HR MAX TEMP:  98; 6HR PCP:  0.16;

MCCOMB         CLOUDY    83  74  74 CALM      30.11F
6HR MIN TEMP:  81; 6HR MAX TEMP:  94; 6HR PCP:  0.22;

NATCHEZ        CLOUDY    79  72  78 S3        30.11F
6HR MIN TEMP:  79; 6HR MAX TEMP:  93;

PINE BELT      MOCLDY    86  70  58 CALM      30.14R HX  90
6HR MIN TEMP:  86; 6HR MAX TEMP:  97;

$$

MSZ080>082-220100-
COASTAL MISSISSIPPI

CITY           SKY/WX    TMP DP  RH WIND       PRES   REMARKS
BAY ST LOUIS   PTCLDY   N/A N/A N/A SW7       30.09F
BILOXI         PTCLDY    88  75  65 SW9       30.09S HX  97
6HR MIN TEMP:  88; 6HR MAX TEMP:  93;

PASCAGOULA     PTCLDY    85  76  74 SW5       30.09S HX  94
6HR MIN TEMP:  85; 6HR MAX TEMP:  94;

GULFPORT       CLEAR     88  75  65 S6        30.09S HX  97
6HR MIN TEMP:  88; 6HR MAX TEMP:  93;

$$



USA.gov is the U.S. government's official web portal to all federal, state and local government web resources and services.